Wetterdaten: Freitag, 25.12.2015
Datum Zeit Temp. A. Feuchte A. Luftdruck Regen Wind Richtung Richtung Sonnenschein ET UV Solar Taupunkt Windchill Windben Empfang
25.12.2015 00:00 1,4 C 91 % 1029,4 hPa 0,0 l/m 0,1 km/h (0 Bft) S 169 0 min 0,000 mm 0,0 UV-I 0 W/m 0,1 C 1,4 C 1,6 km/h (1 Bft) 97,52 %
25.12.2015 00:05 1,5 C 92 % 1029,4 hPa 0,0 l/m 2,8 km/h (1 Bft) S 169 0 min 0,000 mm 0,0 UV-I 0 W/m 0,3 C 1,5 C 6,4 km/h (2 Bft) 97,20 %
25.12.2015 00:10 1,6 C 92 % 1029,4 hPa 0,0 l/m 0,5 km/h (0 Bft) S 169 0 min 0,000 mm 0,0 UV-I 0 W/m 0,4 C 1,6 C 1,6 km/h (1 Bft) 96,61 %
25.12.2015 00:15 1,7 C 91 % 1029,3 hPa 0,0 l/m 1,3 km/h (1 Bft) S 169 0 min 0,000 mm 0,0 UV-I 0 W/m 0,4 C 1,7 C 3,2 km/h (1 Bft) 95,97 %
25.12.2015 00:20 1,3 C 92 % 1029,4 hPa 0,0 l/m 0,4 km/h (0 Bft) S 169 0 min 0,000 mm 0,0 UV-I 0 W/m 0,1 C 1,3 C 3,2 km/h (1 Bft) 97,44 %
25.12.2015 00:25 1,1 C 93 % 1029,4 hPa 0,0 l/m 0,4 km/h (0 Bft) S 169 0 min 0,000 mm 0,0 UV-I 0 W/m 0,1 C 1,1 C 1,6 km/h (1 Bft) 96,61 %
25.12.2015 00:30 1,3 C 93 % 1029,5 hPa 0,0 l/m 1,4 km/h (1 Bft) S 169 0 min 0,000 mm 0,0 UV-I 0 W/m 0,3 C 1,3 C 3,2 km/h (1 Bft) 98,29 %
25.12.2015 00:35 1,2 C 92 % 1029,5 hPa 0,0 l/m 0,8 km/h (0 Bft) S 169 0 min 0,000 mm 0,0 UV-I 0 W/m 0,0 C 1,2 C 3,2 km/h (1 Bft) 99,15 %
25.12.2015 00:40 1,0 C 92 % 1029,6 hPa 0,0 l/m 0,0 km/h (0 Bft) S 169 0 min 0,000 mm 0,0 UV-I 0 W/m -0,2 C 1,0 C 0,0 km/h (0 Bft) 99,15 %
25.12.2015 00:45 0,8 C 93 % 1029,5 hPa 0,0 l/m 0,6 km/h (0 Bft) S 169 0 min 0,000 mm 0,0 UV-I 0 W/m -0,2 C 0,8 C 3,2 km/h (1 Bft) 99,15 %
25.12.2015 00:50 0,7 C 93 % 1029,6 hPa 0,0 l/m 0,5 km/h (0 Bft) S 169 0 min 0,000 mm 0,0 UV-I 0 W/m -0,3 C 0,7 C 3,2 km/h (1 Bft) 100,00 %
25.12.2015 00:55 0,8 C 94 % 1029,7 hPa 0,0 l/m 0,1 km/h (0 Bft) S 169 0 min 0,000 mm 0,0 UV-I 0 W/m -0,1 C 0,8 C 1,6 km/h (1 Bft) 98,31 %
25.12.2015 01:00 0,8 C 93 % 1029,7 hPa 0,0 l/m 0,2 km/h (0 Bft) S 169 0 min 0,000 mm 0,0 UV-I 0 W/m -0,2 C 0,8 C 1,6 km/h (1 Bft) 98,33 %
25.12.2015 01:05 0,7 C 93 % 1029,7 hPa 0,0 l/m 0,5 km/h (0 Bft) S 169 0 min 0,000 mm 0,0 UV-I 0 W/m -0,3 C 0,7 C 3,2 km/h (1 Bft) 98,31 %
25.12.2015 01:10 0,6 C 94 % 1029,8 hPa 0,0 l/m 1,9 km/h (1 Bft) S-SO 164 0 min 0,000 mm 0,0 UV-I 0 W/m -0,3 C 0,6 C 6,4 km/h (2 Bft) 96,58 %
25.12.2015 01:15 0,5 C 94 % 1029,9 hPa 0,0 l/m 1,8 km/h (1 Bft) O 80 0 min 0,000 mm 0,0 UV-I 0 W/m -0,4 C 0,5 C 4,8 km/h (1 Bft) 99,11 %
25.12.2015 01:20 0,4 C 94 % 1029,9 hPa 0,0 l/m 1,4 km/h (1 Bft) O 80 0 min 0,000 mm 0,0 UV-I 0 W/m -0,5 C 0,4 C 3,2 km/h (1 Bft) 100,00 %
25.12.2015 01:25 0,5 C 94 % 1029,9 hPa 0,0 l/m 2,6 km/h (1 Bft) O-NO 76 0 min 0,000 mm 0,0 UV-I 0 W/m -0,4 C 0,5 C 4,8 km/h (1 Bft) 99,15 %
25.12.2015 01:30 0,6 C 94 % 1030,0 hPa 0,0 l/m 1,3 km/h (1 Bft) O-NO 76 0 min 0,000 mm 0,0 UV-I 0 W/m -0,3 C 0,6 C 3,2 km/h (1 Bft) 98,31 %
25.12.2015 01:35 0,5 C 94 % 1030,1 hPa 0,0 l/m 0,9 km/h (0 Bft) O-NO 76 0 min 0,000 mm 0,0 UV-I 0 W/m -0,4 C 0,5 C 1,6 km/h (1 Bft) 98,31 %
25.12.2015 01:40 0,5 C 94 % 1030,1 hPa 0,0 l/m 1,3 km/h (1 Bft) O-NO 76 0 min 0,000 mm 0,0 UV-I 0 W/m -0,4 C 0,5 C 3,2 km/h (1 Bft) 98,33 %
25.12.2015 01:45 0,5 C 93 % 1030,2 hPa 0,0 l/m 0,4 km/h (0 Bft) O-NO 76 0 min 0,000 mm 0,0 UV-I 0 W/m -0,5 C 0,5 C 3,2 km/h (1 Bft) 96,61 %
25.12.2015 01:50 0,4 C 94 % 1030,2 hPa 0,0 l/m 0,0 km/h (0 Bft) O-NO 76 0 min 0,000 mm 0,0 UV-I 0 W/m -0,5 C 0,4 C 0,0 km/h (0 Bft) 100,00 %
25.12.2015 01:55 0,3 C 94 % 1030,2 hPa 0,0 l/m 0,0 km/h (0 Bft) O-NO 76 0 min 0,000 mm 0,0 UV-I 0 W/m -0,5 C 0,3 C 0,0 km/h (0 Bft) 98,31 %
25.12.2015 02:00 0,3 C 95 % 1030,2 hPa 0,0 l/m 0,0 km/h (0 Bft) O-NO 76 0 min 0,000 mm 0,0 UV-I 0 W/m -0,4 C 0,3 C 0,0 km/h (0 Bft) 95,41 %
25.12.2015 02:05 0,3 C 94 % 1030,3 hPa 0,0 l/m 0,1 km/h (0 Bft) O-NO 76 0 min 0,000 mm 0,0 UV-I 0 W/m -0,5 C 0,3 C 1,6 km/h (1 Bft) 97,50 %
25.12.2015 02:10 0,2 C 94 % 1030,3 hPa 0,0 l/m 0,0 km/h (0 Bft) O-NO 76 0 min 0,000 mm 0,0 UV-I 0 W/m -0,6 C 0,2 C 0,0 km/h (0 Bft) 95,87 %
25.12.2015 02:15 0,3 C 95 % 1030,4 hPa 0,0 l/m 0,0 km/h (0 Bft) O-NO 76 0 min 0,000 mm 0,0 UV-I 0 W/m -0,4 C 0,3 C 0,0 km/h (0 Bft) 96,43 %
25.12.2015 02:20 0,2 C 94 % 1030,5 hPa 0,0 l/m 0,5 km/h (0 Bft) O-NO 76 0 min 0,000 mm 0,0 UV-I 0 W/m -0,6 C 0,2 C 3,2 km/h (1 Bft) 97,50 %
25.12.2015 02:25 0,1 C 94 % 1030,5 hPa 0,0 l/m 0,2 km/h (0 Bft) O-NO 76 0 min 0,000 mm 0,0 UV-I 0 W/m -0,7 C 0,1 C 1,6 km/h (1 Bft) 96,61 %
25.12.2015 02:30 0,1 C 95 % 1030,4 hPa 0,0 l/m 0,4 km/h (0 Bft) O-NO 76 0 min 0,000 mm 0,0 UV-I 0 W/m -0,6 C 0,1 C 1,6 km/h (1 Bft) 96,58 %
25.12.2015 02:35 0,1 C 95 % 1030,4 hPa 0,0 l/m 1,1 km/h (1 Bft) O-NO 76 0 min 0,000 mm 0,0 UV-I 0 W/m -0,6 C 0,1 C 3,2 km/h (1 Bft) 98,31 %
25.12.2015 02:40 0,1 C 95 % 1030,4 hPa 0,0 l/m 0,9 km/h (0 Bft) O-SO 114 0 min 0,000 mm 0,0 UV-I 0 W/m -0,6 C 0,1 C 4,8 km/h (1 Bft) 98,31 %
25.12.2015 02:45 0,2 C 96 % 1030,4 hPa 0,0 l/m 1,4 km/h (1 Bft) O-SO 115 0 min 0,000 mm 0,0 UV-I 0 W/m -0,4 C 0,2 C 4,8 km/h (1 Bft) 99,15 %
25.12.2015 02:50 0,2 C 95 % 1030,5 hPa 0,0 l/m 1,5 km/h (1 Bft) O-SO 115 0 min 0,000 mm 0,0 UV-I 0 W/m -0,5 C 0,2 C 3,2 km/h (1 Bft) 99,15 %
25.12.2015 02:55 0,0 C 95 % 1030,5 hPa 0,0 l/m 1,7 km/h (1 Bft) O-SO 115 0 min 0,000 mm 0,0 UV-I 0 W/m -0,7 C 0,0 C 3,2 km/h (1 Bft) 99,08 %
25.12.2015 03:00 -0,1 C 96 % 1030,5 hPa 0,0 l/m 0,2 km/h (0 Bft) O-SO 115 0 min 0,000 mm 0,0 UV-I 0 W/m -0,7 C -0,1 C 1,6 km/h (1 Bft) 98,29 %
25.12.2015 03:05 -0,2 C 95 % 1030,4 hPa 0,0 l/m 0,8 km/h (0 Bft) O-SO 115 0 min 0,000 mm 0,0 UV-I 0 W/m -0,9 C -0,2 C 3,2 km/h (1 Bft) 100,00 %
25.12.2015 03:10 0,1 C 96 % 1030,5 hPa 0,0 l/m 0,7 km/h (0 Bft) O-SO 115 0 min 0,000 mm 0,0 UV-I 0 W/m -0,5 C 0,1 C 1,6 km/h (1 Bft) 99,17 %
25.12.2015 03:15 0,1 C 96 % 1030,6 hPa 0,0 l/m 0,6 km/h (0 Bft) O-SO 115 0 min 0,000 mm 0,0 UV-I 0 W/m -0,5 C 0,1 C 3,2 km/h (1 Bft) 100,00 %
25.12.2015 03:20 0,1 C 96 % 1030,5 hPa 0,0 l/m 0,1 km/h (0 Bft) O-SO 115 0 min 0,000 mm 0,0 UV-I 0 W/m -0,5 C 0,1 C 1,6 km/h (1 Bft) 99,15 %
25.12.2015 03:25 0,1 C 96 % 1030,6 hPa 0,0 l/m 0,7 km/h (0 Bft) O-SO 115 0 min 0,000 mm 0,0 UV-I 0 W/m -0,5 C 0,1 C 3,2 km/h (1 Bft) 99,17 %
25.12.2015 03:30 -0,2 C 95 % 1030,6 hPa 0,0 l/m 0,1 km/h (0 Bft) O-SO 115 0 min 0,000 mm 0,0 UV-I 0 W/m -0,9 C -0,2 C 1,6 km/h (1 Bft) 98,11 %
25.12.2015 03:35 -0,4 C 95 % 1030,7 hPa 0,0 l/m 1,1 km/h (1 Bft) SO 125 0 min 0,000 mm 0,0 UV-I 0 W/m -1,1 C -0,4 C 3,2 km/h (1 Bft) 99,15 %
25.12.2015 03:40 -0,4 C 96 % 1030,8 hPa 0,0 l/m 0,6 km/h (0 Bft) SO 126 0 min 0,000 mm 0,0 UV-I 0 W/m -1,0 C -0,4 C 3,2 km/h (1 Bft) 99,17 %
25.12.2015 03:45 -0,3 C 96 % 1030,9 hPa 0,0 l/m 0,0 km/h (0 Bft) SO 126 0 min 0,000 mm 0,0 UV-I 0 W/m -0,9 C -0,3 C 0,0 km/h (0 Bft) 100,00 %
25.12.2015 03:50 -0,3 C 96 % 1030,9 hPa 0,0 l/m 0,7 km/h (0 Bft) SO 126 0 min 0,000 mm 0,0 UV-I 0 W/m -0,9 C -0,3 C 3,2 km/h (1 Bft) 98,29 %
25.12.2015 03:55 -0,3 C 96 % 1030,9 hPa 0,0 l/m 0,6 km/h (0 Bft) SO 126 0 min 0,000 mm 0,0 UV-I 0 W/m -0,9 C -0,3 C 3,2 km/h (1 Bft) 100,00 %
25.12.2015 04:00 -0,4 C 96 % 1031,0 hPa 0,0 l/m 0,6 km/h (0 Bft) SO 126 0 min 0,000 mm 0,0 UV-I 0 W/m -1,0 C -0,4 C 1,6 km/h (1 Bft) 100,00 %
25.12.2015 04:05 -0,4 C 96 % 1031,0 hPa 0,0 l/m 0,4 km/h (0 Bft) SO 126 0 min 0,000 mm 0,0 UV-I 0 W/m -1,0 C -0,4 C 1,6 km/h (1 Bft) 95,60 %
25.12.2015 04:10 -0,4 C 96 % 1031,1 hPa 0,0 l/m 0,1 km/h (0 Bft) SO 126 0 min 0,000 mm 0,0 UV-I 0 W/m -1,0 C -0,4 C 1,6 km/h (1 Bft) 97,52 %
25.12.2015 04:15 -0,4 C 96 % 1031,2 hPa 0,0 l/m 0,1 km/h (0 Bft) SO 126 0 min 0,000 mm 0,0 UV-I 0 W/m -1,0 C -0,4 C 1,6 km/h (1 Bft) 96,61 %
25.12.2015 04:20 -0,4 C 96 % 1031,2 hPa 0,0 l/m 0,4 km/h (0 Bft) SO 126 0 min 0,000 mm 0,0 UV-I 0 W/m -1,0 C -0,4 C 1,6 km/h (1 Bft) 96,58 %
25.12.2015 04:25 -0,3 C 97 % 1031,3 hPa 0,0 l/m 0,5 km/h (0 Bft) SO 126 0 min 0,000 mm 0,0 UV-I 0 W/m -0,7 C -0,3 C 3,2 km/h (1 Bft) 97,46 %
25.12.2015 04:30 -0,3 C 97 % 1031,3 hPa 0,0 l/m 0,6 km/h (0 Bft) O-SO 122 0 min 0,000 mm 0,0 UV-I 0 W/m -0,7 C -0,3 C 3,2 km/h (1 Bft) 97,50 %
25.12.2015 04:35 -0,2 C 97 % 1031,4 hPa 0,0 l/m 1,0 km/h (0 Bft) O-NO 77 0 min 0,000 mm 0,0 UV-I 0 W/m -0,6 C -0,2 C 4,8 km/h (1 Bft) 97,46 %
25.12.2015 04:40 -0,1 C 97 % 1031,5 hPa 0,0 l/m 0,2 km/h (0 Bft) O-NO 77 0 min 0,000 mm 0,0 UV-I 0 W/m -0,5 C -0,1 C 3,2 km/h (1 Bft) 98,31 %
25.12.2015 04:45 -0,2 C 97 % 1031,5 hPa 0,0 l/m 0,0 km/h (0 Bft) O-NO 77 0 min 0,000 mm 0,0 UV-I 0 W/m -0,6 C -0,2 C 1,6 km/h (1 Bft) 96,30 %
25.12.2015 04:50 -0,2 C 97 % 1031,5 hPa 0,0 l/m 0,9 km/h (0 Bft) O-SO 116 0 min 0,000 mm 0,0 UV-I 0 W/m -0,6 C -0,2 C 3,2 km/h (1 Bft) 98,31 %
25.12.2015 04:55 -0,2 C 97 % 1031,5 hPa 0,0 l/m 0,7 km/h (0 Bft) O-SO 116 0 min 0,000 mm 0,0 UV-I 0 W/m -0,6 C -0,2 C 3,2 km/h (1 Bft) 99,13 %
25.12.2015 05:00 -0,1 C 97 % 1031,6 hPa 0,0 l/m 0,3 km/h (0 Bft) O-SO 116 0 min 0,000 mm 0,0 UV-I 0 W/m -0,5 C -0,1 C 1,6 km/h (1 Bft) 100,00 %
25.12.2015 05:05 -0,1 C 97 % 1031,6 hPa 0,0 l/m 0,3 km/h (0 Bft) O-SO 116 0 min 0,000 mm 0,0 UV-I 0 W/m -0,5 C -0,1 C 1,6 km/h (1 Bft) 100,00 %
25.12.2015 05:10 0,0 C 97 % 1031,7 hPa 0,0 l/m 1,2 km/h (1 Bft) SO 136 0 min 0,000 mm 0,0 UV-I 0 W/m -0,4 C 0,0 C 4,8 km/h (1 Bft) 98,33 %
25.12.2015 05:15 0,1 C 97 % 1031,8 hPa 0,0 l/m 1,7 km/h (1 Bft) S-SO 148 0 min 0,000 mm 0,0 UV-I 0 W/m -0,3 C 0,1 C 4,8 km/h (1 Bft) 99,15 %
25.12.2015 05:20 0,2 C 97 % 1031,8 hPa 0,0 l/m 0,0 km/h (0 Bft) S-SO 148 0 min 0,000 mm 0,0 UV-I 0 W/m -0,2 C 0,2 C 1,6 km/h (1 Bft) 100,00 %
25.12.2015 05:25 0,2 C 97 % 1031,9 hPa 0,0 l/m 0,0 km/h (0 Bft) S-SO 148 0 min 0,000 mm 0,0 UV-I 0 W/m -0,2 C 0,2 C 0,0 km/h (0 Bft) 99,15 %
25.12.2015 05:30 0,1 C 97 % 1031,8 hPa 0,0 l/m 0,0 km/h (0 Bft) S-SO 148 0 min 0,000 mm 0,0 UV-I 0 W/m -0,3 C 0,1 C 0,0 km/h (0 Bft) 100,00 %
25.12.2015 05:35 0,2 C 97 % 1031,8 hPa 0,0 l/m 0,4 km/h (0 Bft) S-SO 148 0 min 0,000 mm 0,0 UV-I 0 W/m -0,2 C 0,2 C 3,2 km/h (1 Bft) 99,15 %
25.12.2015 05:40 0,3 C 97 % 1031,7 hPa 0,0 l/m 0,0 km/h (0 Bft) S-SO 148 0 min 0,000 mm 0,0 UV-I 0 W/m -0,1 C 0,3 C 0,0 km/h (0 Bft) 99,15 %
25.12.2015 05:45 0,3 C 98 % 1031,7 hPa 0,0 l/m 1,2 km/h (1 Bft) S-SO 148 0 min 0,000 mm 0,0 UV-I 0 W/m 0,0 C 0,3 C 3,2 km/h (1 Bft) 98,31 %
25.12.2015 05:50 0,4 C 97 % 1031,8 hPa 0,0 l/m 1,3 km/h (1 Bft) S-SO 148 0 min 0,000 mm 0,0 UV-I 0 W/m -0,0 C 0,4 C 3,2 km/h (1 Bft) 99,15 %
25.12.2015 05:55 0,5 C 97 % 1031,8 hPa 0,0 l/m 1,4 km/h (1 Bft) S-SO 148 0 min 0,000 mm 0,0 UV-I 0 W/m 0,1 C 0,5 C 3,2 km/h (1 Bft) 99,17 %
25.12.2015 06:00 0,5 C 97 % 1031,8 hPa 0,0 l/m 2,5 km/h (1 Bft) SW 215 0 min 0,000 mm 0,0 UV-I 0 W/m 0,1 C 0,5 C 6,4 km/h (2 Bft) 99,15 %
25.12.2015 06:05 0,6 C 97 % 1031,8 hPa 0,0 l/m 2,3 km/h (1 Bft) W-SW 237 0 min 0,000 mm 0,0 UV-I 0 W/m 0,2 C 0,6 C 4,8 km/h (1 Bft) 99,15 %
25.12.2015 06:10 0,6 C 97 % 1031,9 hPa 0,0 l/m 2,3 km/h (1 Bft) NO 39 0 min 0,000 mm 0,0 UV-I 0 W/m 0,2 C 0,6 C 6,4 km/h (2 Bft) 98,35 %
25.12.2015 06:15 0,4 C 97 % 1032,0 hPa 0,0 l/m 0,8 km/h (0 Bft) N-NW 347 0 min 0,000 mm 0,0 UV-I 0 W/m -0,0 C 0,4 C 3,2 km/h (1 Bft) 97,17 %
25.12.2015 06:20 0,4 C 97 % 1032,0 hPa 0,0 l/m 0,3 km/h (0 Bft) N-NW 347 0 min 0,000 mm 0,0 UV-I 0 W/m -0,0 C 0,4 C 1,6 km/h (1 Bft) 97,44 %
25.12.2015 06:25 0,4 C 97 % 1032,1 hPa 0,0 l/m 0,2 km/h (0 Bft) N 355 0 min 0,000 mm 0,0 UV-I 0 W/m -0,0 C 0,4 C 1,6 km/h (1 Bft) 95,76 %
25.12.2015 06:30 0,6 C 97 % 1032,0 hPa 0,0 l/m 0,9 km/h (0 Bft) N 355 0 min 0,000 mm 0,0 UV-I 0 W/m 0,2 C 0,6 C 3,2 km/h (1 Bft) 97,46 %
25.12.2015 06:35 0,6 C 97 % 1032,0 hPa 0,0 l/m 1,7 km/h (1 Bft) NO 52 0 min 0,000 mm 0,0 UV-I 0 W/m 0,2 C 0,6 C 3,2 km/h (1 Bft) 95,73 %
25.12.2015 06:40 0,6 C 97 % 1032,1 hPa 0,0 l/m 0,8 km/h (0 Bft) NO 52 0 min 0,000 mm 0,0 UV-I 0 W/m 0,2 C 0,6 C 3,2 km/h (1 Bft) 96,69 %
25.12.2015 06:45 0,7 C 97 % 1032,2 hPa 0,0 l/m 0,9 km/h (0 Bft) NO 52 0 min 0,000 mm 0,0 UV-I 0 W/m 0,3 C 0,7 C 3,2 km/h (1 Bft) 96,58 %
25.12.2015 06:50 0,7 C 97 % 1032,2 hPa 0,0 l/m 1,6 km/h (1 Bft) O-NO 67 0 min 0,000 mm 0,0 UV-I 0 W/m 0,3 C 0,7 C 3,2 km/h (1 Bft) 97,46 %
25.12.2015 06:55 0,8 C 97 % 1032,2 hPa 0,0 l/m 0,5 km/h (0 Bft) O-NO 67 0 min 0,000 mm 0,0 UV-I 0 W/m 0,4 C 0,8 C 3,2 km/h (1 Bft) 98,35 %
25.12.2015 07:00 0,8 C 97 % 1032,2 hPa 0,0 l/m 0,2 km/h (0 Bft) O-NO 67 0 min 0,000 mm 0,0 UV-I 0 W/m 0,4 C 0,8 C 1,6 km/h (1 Bft) 99,15 %
25.12.2015 07:05 0,8 C 97 % 1032,2 hPa 0,0 l/m 0,6 km/h (0 Bft) O-NO 67 0 min 0,000 mm 0,0 UV-I 0 W/m 0,4 C 0,8 C 3,2 km/h (1 Bft) 98,11 %
25.12.2015 07:10 0,8 C 96 % 1032,3 hPa 0,0 l/m 1,7 km/h (1 Bft) S-SW 198 0 min 0,000 mm 0,0 UV-I 0 W/m 0,2 C 0,8 C 4,8 km/h (1 Bft) 95,97 %
25.12.2015 07:15 0,8 C 96 % 1032,2 hPa 0,0 l/m 2,2 km/h (1 Bft) SW 227 0 min 0,000 mm 0,0 UV-I 0 W/m 0,2 C 0,8 C 6,4 km/h (2 Bft) 100,00 %
25.12.2015 07:20 0,7 C 96 % 1032,3 hPa 0,0 l/m 3,6 km/h (1 Bft) SW 222 0 min 0,000 mm 0,0 UV-I 0 W/m 0,1 C 0,7 C 8,0 km/h (2 Bft) 100,00 %
25.12.2015 07:25 0,6 C 96 % 1032,2 hPa 0,0 l/m 3,4 km/h (1 Bft) S 170 0 min 0,000 mm 0,0 UV-I 0 W/m 0,0 C 0,6 C 6,4 km/h (2 Bft) 96,67 %
25.12.2015 07:30 0,6 C 97 % 1032,4 hPa 0,0 l/m 2,8 km/h (1 Bft) S 184 0 min 0,000 mm 0,0 UV-I 0 W/m 0,2 C 0,6 C 6,4 km/h (2 Bft) 100,00 %
25.12.2015 07:35 0,6 C 97 % 1032,3 hPa 0,0 l/m 2,0 km/h (1 Bft) S-SO 154 0 min 0,000 mm 0,0 UV-I 0 W/m 0,2 C 0,6 C 6,4 km/h (2 Bft) 99,15 %
25.12.2015 07:40 0,7 C 97 % 1032,3 hPa 0,0 l/m 3,1 km/h (1 Bft) S 178 0 min 0,000 mm 0,0 UV-I 0 W/m 0,3 C 0,7 C 6,4 km/h (2 Bft) 96,67 %
25.12.2015 07:45 0,8 C 96 % 1032,3 hPa 0,0 l/m 3,2 km/h (1 Bft) S 178 0 min 0,000 mm 0,0 UV-I 0 W/m 0,2 C 0,8 C 4,8 km/h (1 Bft) 100,00 %
25.12.2015 07:50 0,9 C 96 % 1032,4 hPa 0,0 l/m 2,9 km/h (1 Bft) S 178 0 min 0,000 mm 0,0 UV-I 0 W/m 0,3 C 0,9 C 4,8 km/h (1 Bft) 97,44 %
25.12.2015 07:55 0,8 C 96 % 1032,4 hPa 0,0 l/m 1,5 km/h (1 Bft) S 178 0 min 0,000 mm 0,0 UV-I 5 W/m 0,2 C 0,8 C 3,2 km/h (1 Bft) 100,00 %
25.12.2015 08:00 0,7 C 96 % 1032,3 hPa 0,0 l/m 1,9 km/h (1 Bft) S 178 0 min 0,000 mm 0,0 UV-I 6 W/m 0,1 C 0,7 C 3,2 km/h (1 Bft) 99,15 %
25.12.2015 08:05 0,6 C 96 % 1032,5 hPa 0,0 l/m 1,7 km/h (1 Bft) S 184 0 min 0,000 mm 0,0 UV-I 9 W/m 0,0 C 0,6 C 3,2 km/h (1 Bft) 100,00 %
25.12.2015 08:10 0,4 C 96 % 1032,6 hPa 0,0 l/m 2,5 km/h (1 Bft) SW 215 0 min 0,000 mm 0,0 UV-I 11 W/m -0,2 C 0,4 C 4,8 km/h (1 Bft) 99,15 %
25.12.2015 08:15 0,3 C 96 % 1032,6 hPa 0,0 l/m 2,8 km/h (1 Bft) SW 215 0 min 0,000 mm 0,0 UV-I 13 W/m -0,3 C 0,3 C 4,8 km/h (1 Bft) 100,00 %
25.12.2015 08:20 0,3 C 96 % 1033,1 hPa 0,0 l/m 1,9 km/h (1 Bft) NW 317 0 min 0,000 mm 0,0 UV-I 22 W/m -0,3 C 0,3 C 6,4 km/h (2 Bft) 96,58 %
25.12.2015 08:25 0,3 C 97 % 1032,9 hPa 0,0 l/m 2,0 km/h (1 Bft) N-NO 32 5 min 0,000 mm 0,0 UV-I 35 W/m -0,1 C 0,3 C 6,4 km/h (2 Bft) 96,69 %
25.12.2015 08:30 0,4 C 97 % 1033,0 hPa 0,0 l/m 0,2 km/h (0 Bft) N-NW 337 5 min 0,000 mm 0,0 UV-I 41 W/m -0,0 C 0,4 C 1,6 km/h (1 Bft) 97,44 %
25.12.2015 08:35 0,7 C 97 % 1033,0 hPa 0,0 l/m 0,2 km/h (0 Bft) N-NW 339 0 min 0,000 mm 0,0 UV-I 44 W/m 0,3 C 0,7 C 1,6 km/h (1 Bft) 96,61 %
25.12.2015 08:40 0,9 C 97 % 1033,1 hPa 0,0 l/m 0,8 km/h (0 Bft) O-NO 58 5 min 0,000 mm 0,0 UV-I 57 W/m 0,5 C 0,9 C 3,2 km/h (1 Bft) 98,31 %
25.12.2015 08:45 1,0 C 97 % 1033,1 hPa 0,0 l/m 0,0 km/h (0 Bft) O-NO 58 5 min 0,000 mm 0,0 UV-I 70 W/m 0,6 C 1,0 C 1,6 km/h (1 Bft) 97,44 %
25.12.2015 08:50 1,1 C 96 % 1033,0 hPa 0,0 l/m 0,2 km/h (0 Bft) O-NO 58 5 min 0,000 mm 0,0 UV-I 77 W/m 0,5 C 1,1 C 1,6 km/h (1 Bft) 96,61 %
25.12.2015 08:55 1,2 C 96 % 1033,1 hPa 0,0 l/m 0,5 km/h (0 Bft) O-NO 58 0 min 0,000 mm 0,0 UV-I 68 W/m 0,6 C 1,2 C 3,2 km/h (1 Bft) 97,46 %
25.12.2015 09:00 1,2 C 96 % 1033,1 hPa 0,0 l/m 1,5 km/h (1 Bft) O-NO 58 0 min 0,025 mm 0,0 UV-I 53 W/m 0,6 C 1,2 C 3,2 km/h (1 Bft) 100,00 %
25.12.2015 09:05 1,3 C 96 % 1033,0 hPa 0,0 l/m 2,0 km/h (1 Bft) S-SO 150 0 min 0,000 mm 0,0 UV-I 78 W/m 0,7 C 1,3 C 4,8 km/h (1 Bft) 99,15 %
25.12.2015 09:10 1,6 C 96 % 1033,1 hPa 0,0 l/m 2,2 km/h (1 Bft) S-SO 156 0 min 0,000 mm 0,0 UV-I 62 W/m 1,0 C 1,6 C 3,2 km/h (1 Bft) 100,00 %
25.12.2015 09:15 1,7 C 96 % 1033,1 hPa 0,0 l/m 3,0 km/h (1 Bft) S-SW 205 0 min 0,000 mm 0,0 UV-I 46 W/m 1,1 C 1,7 C 6,4 km/h (2 Bft) 98,29 %
25.12.2015 09:20 1,6 C 95 % 1033,3 hPa 0,0 l/m 1,5 km/h (1 Bft) NW 313 0 min 0,000 mm 0,0 UV-I 29 W/m 0,9 C 1,6 C 4,8 km/h (1 Bft) 100,00 %
25.12.2015 09:25 1,3 C 95 % 1033,2 hPa 0,0 l/m 0,3 km/h (0 Bft) S-SW 193 0 min 0,000 mm 0,0 UV-I 33 W/m 0,6 C 1,3 C 1,6 km/h (1 Bft) 99,15 %
25.12.2015 09:30 1,5 C 96 % 1033,3 hPa 0,0 l/m 0,6 km/h (0 Bft) S-SW 192 5 min 0,000 mm 0,0 UV-I 113 W/m 0,9 C 1,5 C 3,2 km/h (1 Bft) 99,15 %
25.12.2015 09:35 1,7 C 96 % 1033,4 hPa 0,0 l/m 0,0 km/h (0 Bft) S-SW 192 5 min 0,000 mm 0,0 UV-I 132 W/m 1,1 C 1,7 C 1,6 km/h (1 Bft) 98,35 %
25.12.2015 09:40 1,9 C 95 % 1033,4 hPa 0,0 l/m 0,0 km/h (0 Bft) S-SW 192 5 min 0,000 mm 0,0 UV-I 140 W/m 1,2 C 1,9 C 1,6 km/h (1 Bft) 99,07 %
25.12.2015 09:45 2,1 C 95 % 1033,2 hPa 0,0 l/m 0,0 km/h (0 Bft) S-SW 192 5 min 0,000 mm 0,0 UV-I 151 W/m 1,4 C 2,1 C 0,0 km/h (0 Bft) 98,31 %
25.12.2015 09:50 2,3 C 94 % 1033,3 hPa 0,0 l/m 0,0 km/h (0 Bft) S-SW 192 5 min 0,000 mm 0,0 UV-I 160 W/m 1,4 C 2,3 C 1,6 km/h (1 Bft) 99,15 %
25.12.2015 09:55 2,4 C 94 % 1033,3 hPa 0,0 l/m 0,1 km/h (0 Bft) S-SW 192 5 min 0,000 mm 0,0 UV-I 170 W/m 1,5 C 2,4 C 1,6 km/h (1 Bft) 98,33 %
25.12.2015 10:00 2,7 C 94 % 1033,4 hPa 0,0 l/m 1,2 km/h (1 Bft) S-SW 192 5 min 0,051 mm 0,0 UV-I 178 W/m 1,8 C 2,7 C 3,2 km/h (1 Bft) 99,15 %
25.12.2015 10:05 2,8 C 94 % 1033,5 hPa 0,0 l/m 1,0 km/h (0 Bft) S-SW 192 5 min 0,000 mm 0,0 UV-I 187 W/m 1,9 C 2,8 C 3,2 km/h (1 Bft) 99,15 %
25.12.2015 10:10 2,9 C 94 % 1033,5 hPa 0,0 l/m 0,6 km/h (0 Bft) S-SW 192 5 min 0,000 mm 0,0 UV-I 194 W/m 2,0 C 2,9 C 3,2 km/h (1 Bft) 99,15 %
25.12.2015 10:15 3,1 C 93 % 1033,5 hPa 0,0 l/m 0,1 km/h (0 Bft) S-SW 192 5 min 0,000 mm 0,0 UV-I 196 W/m 2,1 C 3,1 C 1,6 km/h (1 Bft) 98,31 %
25.12.2015 10:20 3,4 C 92 % 1033,4 hPa 0,0 l/m 0,3 km/h (0 Bft) S-SW 192 5 min 0,000 mm 0,0 UV-I 217 W/m 2,2 C 3,4 C 1,6 km/h (1 Bft) 98,29 %
25.12.2015 10:25 3,8 C 92 % 1033,4 hPa 0,0 l/m 0,7 km/h (0 Bft) S-SW 202 5 min 0,000 mm 0,2 UV-I 226 W/m 2,6 C 3,8 C 3,2 km/h (1 Bft) 95,76 %
25.12.2015 10:30 4,2 C 92 % 1033,5 hPa 0,0 l/m 0,2 km/h (0 Bft) S-SW 208 5 min 0,000 mm 0,5 UV-I 233 W/m 3,0 C 4,2 C 1,6 km/h (1 Bft) 97,44 %
25.12.2015 10:35 4,4 C 90 % 1033,5 hPa 0,0 l/m 0,4 km/h (0 Bft) S-SW 208 5 min 0,000 mm 0,5 UV-I 232 W/m 2,9 C 4,4 C 3,2 km/h (1 Bft) 96,33 %
25.12.2015 10:40 4,7 C 90 % 1033,5 hPa 0,0 l/m 0,2 km/h (0 Bft) W-SW 238 5 min 0,000 mm 0,5 UV-I 208 W/m 3,2 C 4,7 C 1,6 km/h (1 Bft) 94,92 %
25.12.2015 10:45 4,9 C 90 % 1033,4 hPa 0,0 l/m 0,5 km/h (0 Bft) W-SW 238 5 min 0,000 mm 0,5 UV-I 215 W/m 3,4 C 4,9 C 3,2 km/h (1 Bft) 94,87 %
25.12.2015 10:50 5,1 C 90 % 1033,4 hPa 0,0 l/m 0,9 km/h (0 Bft) W 274 5 min 0,000 mm 0,5 UV-I 243 W/m 3,6 C 5,1 C 4,8 km/h (1 Bft) 94,92 %
25.12.2015 10:55 5,4 C 90 % 1033,3 hPa 0,0 l/m 0,5 km/h (0 Bft) W 274 5 min 0,000 mm 0,6 UV-I 248 W/m 3,9 C 5,4 C 1,6 km/h (1 Bft) 99,17 %
25.12.2015 11:00 5,6 C 89 % 1033,2 hPa 0,0 l/m 1,1 km/h (1 Bft) N 355 5 min 0,076 mm 0,6 UV-I 254 W/m 3,9 C 5,6 C 3,2 km/h (1 Bft) 97,44 %
25.12.2015 11:05 5,6 C 90 % 1033,2 hPa 0,0 l/m 2,7 km/h (1 Bft) N-NO 20 5 min 0,000 mm 0,6 UV-I 248 W/m 4,1 C 5,6 C 4,8 km/h (1 Bft) 100,00 %
25.12.2015 11:10 5,7 C 90 % 1033,2 hPa 0,0 l/m 2,6 km/h (1 Bft) N-NO 20 5 min 0,000 mm 0,6 UV-I 244 W/m 4,2 C 5,7 C 4,8 km/h (1 Bft) 100,00 %
25.12.2015 11:15 5,9 C 89 % 1033,3 hPa 0,0 l/m 3,3 km/h (1 Bft) NO 50 5 min 0,000 mm 0,6 UV-I 266 W/m 4,2 C 5,9 C 4,8 km/h (1 Bft) 98,29 %
25.12.2015 11:20 6,2 C 89 % 1033,3 hPa 0,0 l/m 3,0 km/h (1 Bft) NO 38 5 min 0,000 mm 0,6 UV-I 261 W/m 4,5 C 6,2 C 4,8 km/h (1 Bft) 99,17 %
25.12.2015 11:25 6,2 C 89 % 1033,4 hPa 0,0 l/m 5,4 km/h (1 Bft) N-NO 27 5 min 0,000 mm 0,6 UV-I 254 W/m 4,5 C 6,2 C 9,7 km/h (2 Bft) 100,00 %
25.12.2015 11:30 5,9 C 88 % 1033,3 hPa 0,0 l/m 5,8 km/h (2 Bft) NO 46 5 min 0,000 mm 0,6 UV-I 265 W/m 4,1 C 5,9 C 9,7 km/h (2 Bft) 98,31 %
25.12.2015 11:35 5,8 C 89 % 1033,3 hPa 0,0 l/m 6,0 km/h (2 Bft) N-NO 15 5 min 0,000 mm 0,7 UV-I 271 W/m 4,1 C 5,8 C 9,7 km/h (2 Bft) 99,08 %
25.12.2015 11:40 5,8 C 89 % 1033,3 hPa 0,0 l/m 6,0 km/h (2 Bft) NO 46 5 min 0,000 mm 0,7 UV-I 274 W/m 4,1 C 5,8 C 8,0 km/h (2 Bft) 99,15 %
25.12.2015 11:45 5,7 C 90 % 1033,3 hPa 0,0 l/m 5,2 km/h (1 Bft) N-NO 28 5 min 0,000 mm 0,7 UV-I 267 W/m 4,2 C 5,7 C 8,0 km/h (2 Bft) 100,00 %
25.12.2015 11:50 5,9 C 90 % 1033,3 hPa 0,0 l/m 5,6 km/h (1 Bft) NO 38 5 min 0,000 mm 0,7 UV-I 269 W/m 4,4 C 5,9 C 8,0 km/h (2 Bft) 98,31 %
25.12.2015 11:55 6,1 C 89 % 1033,3 hPa 0,0 l/m 3,8 km/h (1 Bft) NO 47 5 min 0,000 mm 0,7 UV-I 275 W/m 4,4 C 6,1 C 6,4 km/h (2 Bft) 96,67 %
25.12.2015 12:00 6,4 C 90 % 1033,2 hPa 0,0 l/m 5,2 km/h (1 Bft) O-NO 61 5 min 0,102 mm 0,7 UV-I 271 W/m 4,9 C 6,4 C 8,0 km/h (2 Bft) 96,61 %
25.12.2015 12:05 6,9 C 88 % 1033,2 hPa 0,0 l/m 4,8 km/h (1 Bft) NO 49 5 min 0,000 mm 0,7 UV-I 270 W/m 5,1 C 6,9 C 8,0 km/h (2 Bft) 95,83 %
25.12.2015 12:10 7,2 C 87 % 1033,2 hPa 0,0 l/m 4,7 km/h (1 Bft) NO 38 5 min 0,000 mm 0,7 UV-I 276 W/m 5,2 C 7,2 C 6,4 km/h (2 Bft) 97,46 %
25.12.2015 12:15 7,5 C 84 % 1033,1 hPa 0,0 l/m 5,6 km/h (1 Bft) NO 53 5 min 0,000 mm 0,7 UV-I 279 W/m 5,0 C 7,5 C 8,0 km/h (2 Bft) 98,17 %
25.12.2015 12:20 7,7 C 85 % 1033,1 hPa 0,0 l/m 4,8 km/h (1 Bft) NO 55 5 min 0,000 mm 0,7 UV-I 272 W/m 5,3 C 7,7 C 6,4 km/h (2 Bft) 99,19 %
25.12.2015 12:25 7,9 C 86 % 1032,9 hPa 0,0 l/m 4,9 km/h (1 Bft) O-NO 61 5 min 0,000 mm 0,7 UV-I 267 W/m 5,7 C 7,9 C 6,4 km/h (2 Bft) 97,52 %
25.12.2015 12:30 7,9 C 84 % 1033,0 hPa 0,0 l/m 4,4 km/h (1 Bft) O-NO 59 5 min 0,000 mm 0,7 UV-I 267 W/m 5,4 C 7,9 C 6,4 km/h (2 Bft) 100,00 %
25.12.2015 12:35 8,2 C 84 % 1033,0 hPa 0,0 l/m 3,3 km/h (1 Bft) O-NO 57 5 min 0,000 mm 0,7 UV-I 266 W/m 5,7 C 8,2 C 4,8 km/h (1 Bft) 98,29 %
25.12.2015 12:40 8,3 C 85 % 1032,9 hPa 0,0 l/m 4,5 km/h (1 Bft) NO 48 5 min 0,000 mm 0,6 UV-I 267 W/m 5,9 C 8,3 C 6,4 km/h (2 Bft) 98,31 %
25.12.2015 12:45 8,3 C 86 % 1032,9 hPa 0,0 l/m 4,3 km/h (1 Bft) NO 50 5 min 0,000 mm 0,6 UV-I 270 W/m 6,1 C 8,3 C 6,4 km/h (2 Bft) 96,67 %
25.12.2015 12:50 8,4 C 85 % 1032,9 hPa 0,0 l/m 4,3 km/h (1 Bft) NO 47 5 min 0,000 mm 0,6 UV-I 269 W/m 6,0 C 8,4 C 6,4 km/h (2 Bft) 99,17 %
25.12.2015 12:55 8,6 C 84 % 1032,8 hPa 0,0 l/m 3,8 km/h (1 Bft) NO 47 5 min 0,000 mm 0,6 UV-I 253 W/m 6,1 C 8,6 C 4,8 km/h (1 Bft) 100,00 %
25.12.2015 13:00 8,7 C 83 % 1032,8 hPa 0,0 l/m 3,9 km/h (1 Bft) NO 51 5 min 0,127 mm 0,6 UV-I 252 W/m 6,0 C 8,7 C 4,8 km/h (1 Bft) 98,10 %
25.12.2015 13:05 8,8 C 81 % 1032,8 hPa 0,0 l/m 2,8 km/h (1 Bft) NO 52 5 min 0,000 mm 0,6 UV-I 258 W/m 5,7 C 8,8 C 4,8 km/h (1 Bft) 98,35 %
25.12.2015 13:10 8,8 C 81 % 1032,7 hPa 0,0 l/m 3,0 km/h (1 Bft) NO 52 5 min 0,000 mm 0,6 UV-I 249 W/m 5,7 C 8,8 C 4,8 km/h (1 Bft) 99,15 %
25.12.2015 13:15 8,8 C 81 % 1032,7 hPa 0,0 l/m 2,6 km/h (1 Bft) NO 52 5 min 0,000 mm 0,6 UV-I 242 W/m 5,7 C 8,8 C 4,8 km/h (1 Bft) 99,17 %
25.12.2015 13:20 9,0 C 81 % 1032,6 hPa 0,0 l/m 3,3 km/h (1 Bft) NO 55 5 min 0,000 mm 0,5 UV-I 228 W/m 5,9 C 9,0 C 4,8 km/h (1 Bft) 95,04 %
25.12.2015 13:25 9,1 C 81 % 1032,5 hPa 0,0 l/m 3,0 km/h (1 Bft) O 86 5 min 0,000 mm 0,5 UV-I 232 W/m 6,0 C 9,1 C 4,8 km/h (1 Bft) 97,17 %
25.12.2015 13:30 9,2 C 79 % 1032,5 hPa 0,0 l/m 4,2 km/h (1 Bft) NO 51 5 min 0,000 mm 0,5 UV-I 230 W/m 5,8 C 9,2 C 6,4 km/h (2 Bft) 95,73 %
25.12.2015 13:35 9,3 C 79 % 1032,5 hPa 0,0 l/m 3,7 km/h (1 Bft) NO 50 5 min 0,000 mm 0,5 UV-I 237 W/m 5,8 C 9,3 C 4,8 km/h (1 Bft) 95,76 %
25.12.2015 13:40 9,3 C 80 % 1032,5 hPa 0,0 l/m 3,8 km/h (1 Bft) N-NO 26 5 min 0,000 mm 0,5 UV-I 227 W/m 6,0 C 9,3 C 6,4 km/h (2 Bft) 99,15 %
25.12.2015 13:45 9,3 C 80 % 1032,5 hPa 0,0 l/m 2,3 km/h (1 Bft) NO 44 5 min 0,000 mm 0,2 UV-I 214 W/m 6,0 C 9,3 C 4,8 km/h (1 Bft) 98,31 %
25.12.2015 13:50 9,3 C 80 % 1032,3 hPa 0,0 l/m 2,7 km/h (1 Bft) NO 44 5 min 0,000 mm 0,0 UV-I 208 W/m 6,0 C 9,3 C 4,8 km/h (1 Bft) 100,00 %
25.12.2015 13:55 9,2 C 80 % 1032,4 hPa 0,0 l/m 2,4 km/h (1 Bft) O-SO 109 5 min 0,000 mm 0,0 UV-I 198 W/m 5,9 C 9,2 C 4,8 km/h (1 Bft) 98,29 %
25.12.2015 14:00 9,3 C 79 % 1032,3 hPa 0,0 l/m 1,8 km/h (1 Bft) O-SO 121 5 min 0,102 mm 0,0 UV-I 185 W/m 5,8 C 9,3 C 4,8 km/h (1 Bft) 100,00 %
25.12.2015 14:05 9,7 C 76 % 1032,2 hPa 0,0 l/m 1,0 km/h (0 Bft) O-SO 121 5 min 0,000 mm 0,0 UV-I 170 W/m 5,7 C 9,7 C 4,8 km/h (1 Bft) 100,00 %
25.12.2015 14:10 9,7 C 78 % 1032,2 hPa 0,0 l/m 1,9 km/h (1 Bft) O-SO 121 5 min 0,000 mm 0,0 UV-I 181 W/m 6,1 C 9,7 C 3,2 km/h (1 Bft) 96,67 %
25.12.2015 14:15 9,7 C 78 % 1032,1 hPa 0,0 l/m 2,3 km/h (1 Bft) O-SO 121 5 min 0,000 mm 0,0 UV-I 174 W/m 6,1 C 9,7 C 3,2 km/h (1 Bft) 99,15 %
25.12.2015 14:20 9,7 C 80 % 1032,1 hPa 0,0 l/m 3,2 km/h (1 Bft) O-NO 62 5 min 0,000 mm 0,0 UV-I 166 W/m 6,4 C 9,7 C 4,8 km/h (1 Bft) 99,15 %
25.12.2015 14:25 9,7 C 77 % 1032,1 hPa 0,0 l/m 3,8 km/h (1 Bft) O-NO 62 5 min 0,000 mm 0,0 UV-I 157 W/m 5,9 C 9,7 C 4,8 km/h (1 Bft) 99,15 %
25.12.2015 14:30 9,7 C 75 % 1032,2 hPa 0,0 l/m 2,9 km/h (1 Bft) O-NO 62 5 min 0,000 mm 0,0 UV-I 153 W/m 5,5 C 9,7 C 4,8 km/h (1 Bft) 97,25 %
25.12.2015 14:35 9,8 C 76 % 1032,2 hPa 0,0 l/m 2,6 km/h (1 Bft) O-NO 62 5 min 0,000 mm 0,0 UV-I 131 W/m 5,8 C 9,8 C 4,8 km/h (1 Bft) 99,19 %
25.12.2015 14:40 9,8 C 73 % 1032,2 hPa 0,0 l/m 2,4 km/h (1 Bft) O-NO 62 5 min 0,000 mm 0,0 UV-I 128 W/m 5,2 C 9,8 C 3,2 km/h (1 Bft) 98,35 %
25.12.2015 14:45 9,8 C 73 % 1032,1 hPa 0,0 l/m 2,4 km/h (1 Bft) O-NO 62 5 min 0,000 mm 0,0 UV-I 114 W/m 5,2 C 9,8 C 4,8 km/h (1 Bft) 99,08 %
25.12.2015 14:50 9,7 C 76 % 1032,0 hPa 0,0 l/m 3,3 km/h (1 Bft) O-NO 62 5 min 0,000 mm 0,0 UV-I 126 W/m 5,7 C 9,7 C 4,8 km/h (1 Bft) 96,58 %
25.12.2015 14:55 9,4 C 77 % 1032,1 hPa 0,0 l/m 2,0 km/h (1 Bft) O-NO 62 5 min 0,000 mm 0,0 UV-I 124 W/m 5,6 C 9,4 C 3,2 km/h (1 Bft) 97,46 %
25.12.2015 15:00 9,2 C 82 % 1032,0 hPa 0,0 l/m 2,1 km/h (1 Bft) O 86 5 min 0,076 mm 0,0 UV-I 110 W/m 6,3 C 9,2 C 3,2 km/h (1 Bft) 95,73 %
25.12.2015 15:05 9,4 C 79 % 1032,0 hPa 0,0 l/m 0,6 km/h (0 Bft) O 86 5 min 0,000 mm 0,0 UV-I 96 W/m 5,9 C 9,4 C 3,2 km/h (1 Bft) 95,87 %
25.12.2015 15:10 9,6 C 78 % 1032,1 hPa 0,0 l/m 0,8 km/h (0 Bft) O 86 5 min 0,000 mm 0,0 UV-I 82 W/m 6,0 C 9,6 C 1,6 km/h (1 Bft) 94,07 %
25.12.2015 15:15 9,7 C 79 % 1032,1 hPa 0,0 l/m 1,4 km/h (1 Bft) O 96 5 min 0,000 mm 0,0 UV-I 77 W/m 6,2 C 9,7 C 3,2 km/h (1 Bft) 96,40 %
25.12.2015 15:20 9,6 C 80 % 1032,1 hPa 0,0 l/m 1,8 km/h (1 Bft) O-SO 121 5 min 0,000 mm 0,0 UV-I 70 W/m 6,3 C 9,6 C 4,8 km/h (1 Bft) 98,31 %
25.12.2015 15:25 9,3 C 79 % 1032,1 hPa 0,0 l/m 1,4 km/h (1 Bft) SO 133 5 min 0,000 mm 0,0 UV-I 64 W/m 5,8 C 9,3 C 3,2 km/h (1 Bft) 97,46 %
25.12.2015 15:30 9,3 C 79 % 1032,0 hPa 0,0 l/m 1,4 km/h (1 Bft) SO 138 5 min 0,000 mm 0,0 UV-I 56 W/m 5,8 C 9,3 C 3,2 km/h (1 Bft) 96,67 %
25.12.2015 15:35 9,3 C 80 % 1032,1 hPa 0,0 l/m 2,6 km/h (1 Bft) SO 128 5 min 0,000 mm 0,0 UV-I 50 W/m 6,0 C 9,3 C 4,8 km/h (1 Bft) 100,00 %
25.12.2015 15:40 8,9 C 82 % 1032,1 hPa 0,0 l/m 3,1 km/h (1 Bft) S-SO 151 5 min 0,000 mm 0,0 UV-I 41 W/m 6,0 C 8,9 C 6,4 km/h (2 Bft) 100,00 %
25.12.2015 15:45 8,8 C 80 % 1032,1 hPa 0,0 l/m 3,4 km/h (1 Bft) SO 145 5 min 0,000 mm 0,0 UV-I 35 W/m 5,5 C 8,8 C 6,4 km/h (2 Bft) 100,00 %
25.12.2015 15:50 8,8 C 79 % 1032,1 hPa 0,0 l/m 2,7 km/h (1 Bft) S-SO 156 5 min 0,000 mm 0,0 UV-I 30 W/m 5,4 C 8,8 C 6,4 km/h (2 Bft) 100,00 %
25.12.2015 15:55 8,8 C 78 % 1032,1 hPa 0,0 l/m 1,3 km/h (1 Bft) S-SO 163 5 min 0,000 mm 0,0 UV-I 24 W/m 5,2 C 8,8 C 3,2 km/h (1 Bft) 100,00 %
25.12.2015 16:00 8,8 C 78 % 1032,1 hPa 0,0 l/m 0,4 km/h (0 Bft) S-SO 163 5 min 0,025 mm 0,0 UV-I 20 W/m 5,2 C 8,8 C 1,6 km/h (1 Bft) 100,00 %
25.12.2015 16:05 8,5 C 79 % 1032,2 hPa 0,0 l/m 1,6 km/h (1 Bft) S-SO 161 0 min 0,000 mm 0,0 UV-I 15 W/m 5,1 C 8,5 C 3,2 km/h (1 Bft) 100,00 %
25.12.2015 16:10 8,3 C 79 % 1032,2 hPa 0,0 l/m 0,4 km/h (0 Bft) S-SO 161 0 min 0,000 mm 0,0 UV-I 11 W/m 4,9 C 8,3 C 1,6 km/h (1 Bft) 99,15 %
25.12.2015 16:15 8,2 C 80 % 1032,3 hPa 0,0 l/m 0,5 km/h (0 Bft) S-SO 161 0 min 0,000 mm 0,0 UV-I 7 W/m 5,0 C 8,2 C 1,6 km/h (1 Bft) 100,00 %
25.12.2015 16:20 7,8 C 81 % 1032,3 hPa 0,0 l/m 1,8 km/h (1 Bft) S-SO 161 0 min 0,000 mm 0,0 UV-I 6 W/m 4,7 C 7,8 C 6,4 km/h (2 Bft) 99,15 %
25.12.2015 16:25 7,4 C 82 % 1032,3 hPa 0,0 l/m 0,8 km/h (0 Bft) S-SO 161 0 min 0,000 mm 0,0 UV-I 8 W/m 4,5 C 7,4 C 1,6 km/h (1 Bft) 99,15 %
25.12.2015 16:30 7,2 C 83 % 1032,3 hPa 0,0 l/m 1,3 km/h (1 Bft) S-SO 161 0 min 0,000 mm 0,0 UV-I 7 W/m 4,5 C 7,2 C 3,2 km/h (1 Bft) 99,15 %
25.12.2015 16:35 7,2 C 83 % 1032,3 hPa 0,0 l/m 0,7 km/h (0 Bft) S-SO 161 0 min 0,000 mm 0,0 UV-I 1 W/m 4,5 C 7,2 C 1,6 km/h (1 Bft) 97,50 %
25.12.2015 16:40 7,3 C 83 % 1032,3 hPa 0,0 l/m 1,1 km/h (1 Bft) S-SO 161 0 min 0,000 mm 0,0 UV-I 0 W/m 4,6 C 7,3 C 3,2 km/h (1 Bft) 100,00 %
25.12.2015 16:45 7,1 C 84 % 1032,4 hPa 0,0 l/m 1,1 km/h (1 Bft) S-SO 161 0 min 0,000 mm 0,0 UV-I 0 W/m 4,6 C 7,1 C 3,2 km/h (1 Bft) 100,00 %
25.12.2015 16:50 6,9 C 84 % 1032,3 hPa 0,0 l/m 1,4 km/h (1 Bft) S-SO 161 0 min 0,000 mm 0,0 UV-I 0 W/m 4,4 C 6,9 C 6,4 km/h (2 Bft) 97,44 %
25.12.2015 16:55 6,7 C 85 % 1032,3 hPa 0,0 l/m 1,2 km/h (1 Bft) S-SO 161 0 min 0,000 mm 0,0 UV-I 0 W/m 4,4 C 6,7 C 3,2 km/h (1 Bft) 96,61 %
25.12.2015 17:00 6,7 C 85 % 1032,4 hPa 0,0 l/m 0,7 km/h (0 Bft) S-SO 161 0 min 0,000 mm 0,0 UV-I 0 W/m 4,4 C 6,7 C 1,6 km/h (1 Bft) 96,58 %
25.12.2015 17:05 6,6 C 86 % 1032,4 hPa 0,0 l/m 1,1 km/h (1 Bft) S-SO 161 0 min 0,000 mm 0,0 UV-I 0 W/m 4,4 C 6,6 C 3,2 km/h (1 Bft) 96,64 %
25.12.2015 17:10 6,3 C 87 % 1032,4 hPa 0,0 l/m 1,0 km/h (0 Bft) S-SO 161 0 min 0,000 mm 0,0 UV-I 0 W/m 4,3 C 6,3 C 3,2 km/h (1 Bft) 97,25 %
25.12.2015 17:15 6,1 C 88 % 1032,4 hPa 0,0 l/m 1,0 km/h (0 Bft) S-SO 161 0 min 0,000 mm 0,0 UV-I 0 W/m 4,3 C 6,1 C 3,2 km/h (1 Bft) 97,50 %
25.12.2015 17:20 6,3 C 87 % 1032,4 hPa 0,0 l/m 1,8 km/h (1 Bft) S-SO 161 0 min 0,000 mm 0,0 UV-I 0 W/m 4,3 C 6,3 C 3,2 km/h (1 Bft) 97,46 %
25.12.2015 17:25 6,4 C 87 % 1032,4 hPa 0,0 l/m 1,9 km/h (1 Bft) S-SO 161 0 min 0,000 mm 0,0 UV-I 0 W/m 4,4 C 6,4 C 3,2 km/h (1 Bft) 96,61 %
25.12.2015 17:30 6,6 C 87 % 1032,5 hPa 0,0 l/m 1,0 km/h (0 Bft) S-SO 161 0 min 0,000 mm 0,0 UV-I 0 W/m 4,6 C 6,6 C 1,6 km/h (1 Bft) 98,29 %
25.12.2015 17:35 6,6 C 86 % 1032,5 hPa 0,0 l/m 0,8 km/h (0 Bft) S-SO 161 0 min 0,000 mm 0,0 UV-I 0 W/m 4,4 C 6,6 C 1,6 km/h (1 Bft) 97,46 %
25.12.2015 17:40 6,1 C 87 % 1032,5 hPa 0,0 l/m 2,6 km/h (1 Bft) S-SO 161 0 min 0,000 mm 0,0 UV-I 0 W/m 4,1 C 6,1 C 3,2 km/h (1 Bft) 97,44 %
25.12.2015 17:45 5,7 C 89 % 1032,5 hPa 0,0 l/m 1,7 km/h (1 Bft) S-SO 161 0 min 0,000 mm 0,0 UV-I 0 W/m 4,0 C 5,7 C 3,2 km/h (1 Bft) 97,32 %
25.12.2015 17:50 5,7 C 90 % 1032,6 hPa 0,0 l/m 0,4 km/h (0 Bft) S-SO 161 0 min 0,000 mm 0,0 UV-I 0 W/m 4,2 C 5,7 C 1,6 km/h (1 Bft) 100,00 %
25.12.2015 17:55 5,7 C 90 % 1032,5 hPa 0,0 l/m 0,4 km/h (0 Bft) S-SO 161 0 min 0,000 mm 0,0 UV-I 0 W/m 4,2 C 5,7 C 1,6 km/h (1 Bft) 99,17 %
25.12.2015 18:00 6,1 C 89 % 1032,5 hPa 0,0 l/m 1,8 km/h (1 Bft) S-SO 161 0 min 0,000 mm 0,0 UV-I 0 W/m 4,4 C 6,1 C 3,2 km/h (1 Bft) 99,17 %
25.12.2015 18:05 5,7 C 89 % 1032,7 hPa 0,0 l/m 0,7 km/h (0 Bft) S-SO 161 0 min 0,000 mm 0,0 UV-I 0 W/m 4,0 C 5,7 C 3,2 km/h (1 Bft) 96,23 %
25.12.2015 18:10 5,4 C 90 % 1032,7 hPa 0,0 l/m 1,8 km/h (1 Bft) S-SO 161 0 min 0,000 mm 0,0 UV-I 0 W/m 3,9 C 5,4 C 3,2 km/h (1 Bft) 100,00 %
25.12.2015 18:15 5,2 C 92 % 1032,7 hPa 0,0 l/m 2,2 km/h (1 Bft) S-SO 161 0 min 0,000 mm 0,0 UV-I 0 W/m 4,0 C 5,2 C 3,2 km/h (1 Bft) 99,17 %
25.12.2015 18:20 5,1 C 93 % 1032,6 hPa 0,0 l/m 1,8 km/h (1 Bft) S-SO 161 0 min 0,000 mm 0,0 UV-I 0 W/m 4,1 C 5,1 C 3,2 km/h (1 Bft) 100,00 %
25.12.2015 18:25 5,0 C 92 % 1032,6 hPa 0,0 l/m 1,7 km/h (1 Bft) S-SO 161 0 min 0,000 mm 0,0 UV-I 0 W/m 3,8 C 5,0 C 3,2 km/h (1 Bft) 97,46 %
25.12.2015 18:30 4,9 C 92 % 1032,6 hPa 0,0 l/m 2,5 km/h (1 Bft) S-SO 161 0 min 0,000 mm 0,0 UV-I 0 W/m 3,7 C 4,9 C 3,2 km/h (1 Bft) 98,35 %
25.12.2015 18:35 4,7 C 92 % 1032,7 hPa 0,0 l/m 2,2 km/h (1 Bft) S-SO 161 0 min 0,000 mm 0,0 UV-I 0 W/m 3,5 C 4,7 C 3,2 km/h (1 Bft) 100,00 %
25.12.2015 18:40 4,5 C 93 % 1032,7 hPa 0,0 l/m 2,4 km/h (1 Bft) S-SO 161 0 min 0,000 mm 0,0 UV-I 0 W/m 3,5 C 4,5 C 3,2 km/h (1 Bft) 99,08 %
25.12.2015 18:45 4,6 C 93 % 1032,7 hPa 0,0 l/m 3,8 km/h (1 Bft) W-SW 243 0 min 0,000 mm 0,0 UV-I 0 W/m 3,6 C 4,6 C 6,4 km/h (2 Bft) 99,15 %
25.12.2015 18:50 4,4 C 92 % 1032,7 hPa 0,0 l/m 4,4 km/h (1 Bft) SW 221 0 min 0,000 mm 0,0 UV-I 0 W/m 3,2 C 4,4 C 6,4 km/h (2 Bft) 97,44 %
25.12.2015 18:55 4,4 C 93 % 1032,7 hPa 0,0 l/m 2,8 km/h (1 Bft) SW 221 0 min 0,000 mm 0,0 UV-I 0 W/m 3,4 C 4,4 C 4,8 km/h (1 Bft) 98,35 %
25.12.2015 19:00 4,7 C 92 % 1032,8 hPa 0,0 l/m 1,0 km/h (0 Bft) SW 221 0 min 0,000 mm 0,0 UV-I 0 W/m 3,5 C 4,7 C 3,2 km/h (1 Bft) 100,00 %
25.12.2015 19:05 4,7 C 91 % 1032,8 hPa 0,0 l/m 0,2 km/h (0 Bft) SW 221 0 min 0,000 mm 0,0 UV-I 0 W/m 3,4 C 4,7 C 1,6 km/h (1 Bft) 98,31 %
25.12.2015 19:10 4,3 C 92 % 1032,9 hPa 0,0 l/m 0,3 km/h (0 Bft) W 263 0 min 0,000 mm 0,0 UV-I 0 W/m 3,1 C 4,3 C 1,6 km/h (1 Bft) 95,76 %
25.12.2015 19:15 4,3 C 93 % 1032,9 hPa 0,0 l/m 0,6 km/h (0 Bft) W 271 0 min 0,000 mm 0,0 UV-I 0 W/m 3,3 C 4,3 C 1,6 km/h (1 Bft) 95,73 %
25.12.2015 19:20 4,4 C 93 % 1033,0 hPa 0,0 l/m 0,1 km/h (0 Bft) W 271 0 min 0,000 mm 0,0 UV-I 0 W/m 3,4 C 4,4 C 1,6 km/h (1 Bft) 98,31 %
25.12.2015 19:25 4,4 C 93 % 1033,1 hPa 0,0 l/m 0,6 km/h (0 Bft) W 271 0 min 0,000 mm 0,0 UV-I 0 W/m 3,4 C 4,4 C 1,6 km/h (1 Bft) 97,17 %
25.12.2015 19:30 4,3 C 93 % 1033,1 hPa 0,0 l/m 0,2 km/h (0 Bft) W 271 0 min 0,000 mm 0,0 UV-I 0 W/m 3,3 C 4,3 C 1,6 km/h (1 Bft) 95,76 %
25.12.2015 19:35 4,3 C 94 % 1033,2 hPa 0,0 l/m 0,0 km/h (0 Bft) W 271 0 min 0,000 mm 0,0 UV-I 0 W/m 3,4 C 4,3 C 1,6 km/h (1 Bft) 96,77 %
25.12.2015 19:40 4,1 C 93 % 1033,2 hPa 0,0 l/m 0,0 km/h (0 Bft) W 271 0 min 0,000 mm 0,0 UV-I 0 W/m 3,1 C 4,1 C 1,6 km/h (1 Bft) 97,44 %
25.12.2015 19:45 4,2 C 94 % 1033,1 hPa 0,0 l/m 0,8 km/h (0 Bft) W 271 0 min 0,000 mm 0,0 UV-I 0 W/m 3,3 C 4,2 C 1,6 km/h (1 Bft) 97,46 %
25.12.2015 19:50 3,8 C 93 % 1033,1 hPa 0,0 l/m 0,3 km/h (0 Bft) W 271 0 min 0,000 mm 0,0 UV-I 0 W/m 2,8 C 3,8 C 1,6 km/h (1 Bft) 99,08 %
25.12.2015 19:55 3,5 C 94 % 1033,0 hPa 0,0 l/m 0,5 km/h (0 Bft) W-SW 250 0 min 0,000 mm 0,0 UV-I 0 W/m 2,6 C 3,5 C 1,6 km/h (1 Bft) 98,33 %
25.12.2015 20:00 3,4 C 95 % 1033,0 hPa 0,0 l/m 1,1 km/h (1 Bft) SW 233 0 min 0,000 mm 0,0 UV-I 0 W/m 2,7 C 3,4 C 3,2 km/h (1 Bft) 98,35 %
25.12.2015 20:05 3,7 C 95 % 1033,0 hPa 0,0 l/m 0,3 km/h (0 Bft) SW 232 0 min 0,000 mm 0,0 UV-I 0 W/m 3,0 C 3,7 C 1,6 km/h (1 Bft) 98,35 %
25.12.2015 20:10 3,5 C 95 % 1032,9 hPa 0,0 l/m 0,9 km/h (0 Bft) SW 232 0 min 0,000 mm 0,0 UV-I 0 W/m 2,8 C 3,5 C 3,2 km/h (1 Bft) 99,07 %
25.12.2015 20:15 3,3 C 95 % 1032,8 hPa 0,0 l/m 0,9 km/h (0 Bft) SW 228 0 min 0,000 mm 0,0 UV-I 0 W/m 2,6 C 3,3 C 3,2 km/h (1 Bft) 99,17 %
25.12.2015 20:20 3,2 C 95 % 1032,7 hPa 0,0 l/m 1,0 km/h (0 Bft) SW 220 0 min 0,000 mm 0,0 UV-I 0 W/m 2,5 C 3,2 C 3,2 km/h (1 Bft) 98,33 %
25.12.2015 20:25 3,3 C 96 % 1032,8 hPa 0,0 l/m 1,9 km/h (1 Bft) SW 219 0 min 0,000 mm 0,0 UV-I 0 W/m 2,7 C 3,3 C 3,2 km/h (1 Bft) 98,21 %
25.12.2015 20:30 3,3 C 96 % 1032,9 hPa 0,0 l/m 0,0 km/h (0 Bft) SW 219 0 min 0,000 mm 0,0 UV-I 0 W/m 2,7 C 3,3 C 0,0 km/h (0 Bft) 99,11 %
25.12.2015 20:35 3,4 C 96 % 1032,9 hPa 0,0 l/m 1,8 km/h (1 Bft) SW 219 0 min 0,000 mm 0,0 UV-I 0 W/m 2,8 C 3,4 C 3,2 km/h (1 Bft) 100,00 %
25.12.2015 20:40 3,3 C 95 % 1033,1 hPa 0,0 l/m 1,1 km/h (1 Bft) SW 219 0 min 0,000 mm 0,0 UV-I 0 W/m 2,6 C 3,3 C 3,2 km/h (1 Bft) 100,00 %
25.12.2015 20:45 3,0 C 95 % 1033,1 hPa 0,0 l/m 0,0 km/h (0 Bft) SW 219 0 min 0,000 mm 0,0 UV-I 0 W/m 2,3 C 3,0 C 1,6 km/h (1 Bft) 99,15 %
25.12.2015 20:50 2,9 C 96 % 1033,2 hPa 0,0 l/m 1,5 km/h (1 Bft) SW 219 0 min 0,000 mm 0,0 UV-I 0 W/m 2,3 C 2,9 C 3,2 km/h (1 Bft) 98,97 %
25.12.2015 20:55 3,6 C 97 % 1033,2 hPa 0,0 l/m 3,6 km/h (1 Bft) O 80 0 min 0,000 mm 0,0 UV-I 0 W/m 3,2 C 3,6 C 4,8 km/h (1 Bft) 100,00 %
25.12.2015 21:00 3,2 C 94 % 1033,1 hPa 0,0 l/m 5,0 km/h (1 Bft) O-SO 106 0 min 0,000 mm 0,0 UV-I 0 W/m 2,3 C 3,2 C 6,4 km/h (2 Bft) 100,00 %
25.12.2015 21:05 2,6 C 95 % 1033,1 hPa 0,0 l/m 4,9 km/h (1 Bft) O-SO 106 0 min 0,000 mm 0,0 UV-I 0 W/m 1,9 C 2,6 C 6,4 km/h (2 Bft) 97,44 %
25.12.2015 21:10 2,5 C 96 % 1033,1 hPa 0,0 l/m 4,3 km/h (1 Bft) O-SO 106 0 min 0,000 mm 0,0 UV-I 0 W/m 1,9 C 2,5 C 4,8 km/h (1 Bft) 100,00 %
25.12.2015 21:15 2,6 C 96 % 1033,2 hPa 0,0 l/m 2,9 km/h (1 Bft) O-SO 106 0 min 0,000 mm 0,0 UV-I 0 W/m 2,0 C 2,6 C 4,8 km/h (1 Bft) 99,15 %
25.12.2015 21:20 2,6 C 96 % 1033,2 hPa 0,0 l/m 0,6 km/h (0 Bft) O-SO 106 0 min 0,000 mm 0,0 UV-I 0 W/m 2,0 C 2,6 C 1,6 km/h (1 Bft) 100,00 %
25.12.2015 21:25 2,6 C 96 % 1033,2 hPa 0,0 l/m 0,3 km/h (0 Bft) O-SO 106 0 min 0,000 mm 0,0 UV-I 0 W/m 2,0 C 2,6 C 1,6 km/h (1 Bft) 98,31 %
25.12.2015 21:30 2,6 C 96 % 1033,3 hPa 0,0 l/m 0,4 km/h (0 Bft) O-SO 106 0 min 0,000 mm 0,0 UV-I 0 W/m 2,0 C 2,6 C 1,6 km/h (1 Bft) 97,44 %
25.12.2015 21:35 2,2 C 96 % 1033,4 hPa 0,0 l/m 0,9 km/h (0 Bft) O-SO 106 0 min 0,000 mm 0,0 UV-I 0 W/m 1,6 C 2,2 C 3,2 km/h (1 Bft) 98,17 %
25.12.2015 21:40 2,5 C 97 % 1033,4 hPa 0,0 l/m 1,0 km/h (0 Bft) O-SO 106 0 min 0,000 mm 0,0 UV-I 0 W/m 2,1 C 2,5 C 1,6 km/h (1 Bft) 96,69 %
25.12.2015 21:45 2,3 C 96 % 1033,4 hPa 0,0 l/m 0,1 km/h (0 Bft) O-SO 106 0 min 0,000 mm 0,0 UV-I 0 W/m 1,7 C 2,3 C 1,6 km/h (1 Bft) 96,58 %
25.12.2015 21:50 2,2 C 97 % 1033,4 hPa 0,0 l/m 0,1 km/h (0 Bft) O-SO 106 0 min 0,000 mm 0,0 UV-I 0 W/m 1,8 C 2,2 C 1,6 km/h (1 Bft) 97,46 %
25.12.2015 21:55 2,2 C 97 % 1033,4 hPa 0,0 l/m 2,2 km/h (1 Bft) O-SO 106 0 min 0,000 mm 0,0 UV-I 0 W/m 1,8 C 2,2 C 3,2 km/h (1 Bft) 96,61 %
25.12.2015 22:00 2,4 C 97 % 1033,4 hPa 0,0 l/m 0,4 km/h (0 Bft) O-SO 106 0 min 0,000 mm 0,0 UV-I 0 W/m 2,0 C 2,4 C 1,6 km/h (1 Bft) 96,58 %
25.12.2015 22:05 2,4 C 97 % 1033,4 hPa 0,0 l/m 0,0 km/h (0 Bft) O-SO 106 0 min 0,000 mm 0,0 UV-I 0 W/m 2,0 C 2,4 C 0,0 km/h (0 Bft) 97,46 %
25.12.2015 22:10 2,4 C 97 % 1033,5 hPa 0,0 l/m 0,0 km/h (0 Bft) O-SO 106 0 min 0,000 mm 0,0 UV-I 0 W/m 2,0 C 2,4 C 1,6 km/h (1 Bft) 100,00 %
25.12.2015 22:15 2,4 C 97 % 1033,5 hPa 0,0 l/m 0,9 km/h (0 Bft) O-SO 106 0 min 0,000 mm 0,0 UV-I 0 W/m 2,0 C 2,4 C 1,6 km/h (1 Bft) 99,15 %
25.12.2015 22:20 2,3 C 97 % 1033,4 hPa 0,0 l/m 2,2 km/h (1 Bft) O-SO 106 0 min 0,000 mm 0,0 UV-I 0 W/m 1,9 C 2,3 C 3,2 km/h (1 Bft) 99,15 %
25.12.2015 22:25 2,1 C 97 % 1033,4 hPa 0,0 l/m 2,3 km/h (1 Bft) O-SO 106 0 min 0,000 mm 0,0 UV-I 0 W/m 1,7 C 2,1 C 3,2 km/h (1 Bft) 100,00 %
25.12.2015 22:30 2,3 C 97 % 1033,3 hPa 0,0 l/m 3,1 km/h (1 Bft) SO 125 0 min 0,000 mm 0,0 UV-I 0 W/m 1,9 C 2,3 C 6,4 km/h (2 Bft) 99,08 %
25.12.2015 22:35 2,2 C 97 % 1033,3 hPa 0,0 l/m 4,5 km/h (1 Bft) O-SO 115 0 min 0,000 mm 0,0 UV-I 0 W/m 1,8 C 2,2 C 6,4 km/h (2 Bft) 99,15 %
25.12.2015 22:40 2,2 C 97 % 1033,4 hPa 0,0 l/m 3,3 km/h (1 Bft) O-SO 115 0 min 0,000 mm 0,0 UV-I 0 W/m 1,8 C 2,2 C 4,8 km/h (1 Bft) 98,33 %
25.12.2015 22:45 2,4 C 98 % 1033,3 hPa 0,0 l/m 2,2 km/h (1 Bft) SO 124 0 min 0,000 mm 0,0 UV-I 0 W/m 2,1 C 2,4 C 4,8 km/h (1 Bft) 100,00 %
25.12.2015 22:50 1,8 C 97 % 1033,4 hPa 0,0 l/m 2,1 km/h (1 Bft) SO 124 0 min 0,000 mm 0,0 UV-I 0 W/m 1,4 C 1,8 C 3,2 km/h (1 Bft) 99,17 %
25.12.2015 22:55 1,7 C 97 % 1033,4 hPa 0,0 l/m 2,4 km/h (1 Bft) S-SO 147 0 min 0,000 mm 0,0 UV-I 0 W/m 1,3 C 1,7 C 4,8 km/h (1 Bft) 98,17 %
25.12.2015 23:00 1,5 C 97 % 1033,4 hPa 0,0 l/m 3,4 km/h (1 Bft) S 179 0 min 0,000 mm 0,0 UV-I 0 W/m 1,1 C 1,5 C 6,4 km/h (2 Bft) 98,31 %
25.12.2015 23:05 1,7 C 97 % 1033,3 hPa 0,0 l/m 2,0 km/h (1 Bft) S 179 0 min 0,000 mm 0,0 UV-I 0 W/m 1,3 C 1,7 C 4,8 km/h (1 Bft) 99,17 %
25.12.2015 23:10 1,5 C 97 % 1033,3 hPa 0,0 l/m 2,1 km/h (1 Bft) S 179 0 min 0,000 mm 0,0 UV-I 0 W/m 1,1 C 1,5 C 3,2 km/h (1 Bft) 97,46 %
25.12.2015 23:15 1,3 C 97 % 1033,3 hPa 0,0 l/m 2,5 km/h (1 Bft) S 179 0 min 0,000 mm 0,0 UV-I 0 W/m 0,9 C 1,3 C 4,8 km/h (1 Bft) 100,00 %
25.12.2015 23:20 1,4 C 97 % 1033,3 hPa 0,0 l/m 3,4 km/h (1 Bft) W-SW 240 0 min 0,000 mm 0,0 UV-I 0 W/m 1,0 C 1,4 C 4,8 km/h (1 Bft) 99,15 %
25.12.2015 23:25 1,8 C 97 % 1033,3 hPa 0,0 l/m 4,1 km/h (1 Bft) SW 221 0 min 0,000 mm 0,0 UV-I 0 W/m 1,4 C 1,8 C 4,8 km/h (1 Bft) 99,15 %
25.12.2015 23:30 1,7 C 97 % 1033,3 hPa 0,0 l/m 2,9 km/h (1 Bft) S-SW 211 0 min 0,000 mm 0,0 UV-I 0 W/m 1,3 C 1,7 C 4,8 km/h (1 Bft) 98,33 %
25.12.2015 23:35 1,6 C 97 % 1033,2 hPa 0,0 l/m 2,6 km/h (1 Bft) S 189 0 min 0,000 mm 0,0 UV-I 0 W/m 1,2 C 1,6 C 4,8 km/h (1 Bft) 100,00 %
25.12.2015 23:40 1,8 C 97 % 1033,2 hPa 0,0 l/m 1,8 km/h (1 Bft) S 187 0 min 0,000 mm 0,0 UV-I 0 W/m 1,4 C 1,8 C 4,8 km/h (1 Bft) 99,11 %
25.12.2015 23:45 1,7 C 97 % 1033,2 hPa 0,0 l/m 2,7 km/h (1 Bft) S 187 0 min 0,000 mm 0,0 UV-I 0 W/m 1,3 C 1,7 C 4,8 km/h (1 Bft) 99,15 %
25.12.2015 23:50 1,7 C 97 % 1033,2 hPa 0,0 l/m 2,0 km/h (1 Bft) S 188 0 min 0,000 mm 0,0 UV-I 0 W/m 1,3 C 1,7 C 3,2 km/h (1 Bft) 97,46 %
25.12.2015 23:55 1,4 C 97 % 1033,2 hPa 0,0 l/m 2,1 km/h (1 Bft) W-NW 300 0 min 0,000 mm 0,0 UV-I 0 W/m 1,0 C 1,4 C 3,2 km/h (1 Bft) 96,67 %
_ Min-Zeit 03:35 14:40 00:15 - 00:40 - - - - - - 03:35 03:35 00:40 15:10
Minimum _ -0,4 C 73 % 1029,3 hPa - 0,0 km/h (0 Bft) - - - - - - -1,1 C -0,4 C 0,0 km/h (0 Bft) 94,07 %
_ Max-Zeit 14:10 05:45 10:05 00:00 11:35 - - 08:25 13:00 11:35 12:15 14:20 14:35 11:25 00:50
Maximum _ 9,8 C 98 % 1033,5 hPa 0,0 l/m 6,0 km/h
N-NO (2 Bft)
- - 5 min 0,127 mm 0,7 UV-I 279 W/m 6,4 C 9,8 C 9,7 km/h
N-NO (2 Bft)
100,00 %
Durchschnitt _ 3,5 C 92 % 1032,2 hPa #0,0 l/m 1,6 km/h (1 Bft) S-SO - #7:00 h #0,584 mm 0,6 UV-I 152 W/m 2,2 C 3,5 C 3,5 km/h (1 Bft) 98,30 %